Starlink 5646

operational
NORAD ID: 55461 Int'l Des: 2023-015 Owner: SPXS Country: US Constellation: starlink
LEOCIRCULAR

Über Starlink 5646

Beschreibung wird geladen...

Live-Position

3D-Globus wird geladen...

Nächste Überflüge

Höhenverlauf

Altitude vs Time

uPlot chart will show altitude changes over time

Zweizeiliger Elementsatz

1 55461U 23015N 25351.86673366 -.00000230 00000-0 -19597-5 0 9996
2 55461 43.0059 50.7713 0001515 265.3780 94.6890 15.02533731158448
Epoch: 17. Dez. 2025 • Age: 14 hours

Aktueller Status

Höhe 566.2 km
Geschwindigkeit 7.58 km/s
Subsatellitenpunkt -29.68°S, 118.5°E
Startdatum 2. Feb. 2023
Alter 2.8 years
Typ internet

Technische Details

Klassifizierung Payload
Masse 305.00 kg
Trockenmasse 290.00 kg
Gesamtmasse 305.00 kg
Länge 0.20 m
Durchmesser 2.80 m
Spannweite 9.00 m
Form Box + pan
Hersteller SPXS
Bus-Typ Starlink
Phasenstatus In Orbit
Besitzer/Staat SPXS/US

Große Konstellationen

Loading constellations...